Weather History for Beijing, BJ

Change the Weather History Date:

Saturday, July 13, 2013

  Actual Average Record
Temperature  
Mean Temperature 80 °F -  
Max Temperature 88 °F 86 °F 102 °F (1997)
Min Temperature 73 °F 70 °F 64 °F (1999)
Cooling Degree Days 16    
Growing Degree Days 30 (Base 50)    
Moisture  
Dew Point 72 °F    
Average Humidity 74    
Maximum Humidity 94    
Minimum Humidity 52    
Precipitation  
Precipitation 0.00 in 0.23 in - ()
Sea Level Pressure  
Sea Level Pressure 29.72 in    
Wind  
Wind Speed 4 mph ()    
Max Wind Speed 9 mph    
Max Gust Speed -    
Visibility 2.8 miles    
Events      
Averages and records for this station are not official NWS values.
T = Trace of Precipitation, MM = Missing Value Source: Averaged Metar Reports

Daily Weather History Graph

Daily Weather History Graph

Search for Another Location

Airport:

Trip Planner

Search our weather history database for the weather conditions in past years. The results will help you decide how hot, cold, wet, or windy it might be!

Date:

Astronomy

Jul. 13, 2013 Rise Set
Actual Time 4:55 AM CST 7:42 PM CST
Civil Twilight 4:23 AM CST 8:14 PM CST
Nautical Twilight 3:43 AM CST 8:55 PM CST
Astronomical Twilight 2:57 AM CST 9:40 PM CST
Moon 9:37 AM CST (7/13) 10:06 PM CST (7/13)
Length of Visible Light 15h 51m
Length of Day
14h 47m
Waxing Crescent, 21% of the Moon is Illuminated
Jul 13
Waxing Crescent
Jul 16
First Quarter
Jul 23
Full
Jul 30
Last Quarter
Aug 7
New

Hourly Weather History & Observations

Time (CST) Temp. Heat Index Dew Point Humidity Pressure Visibility Wind Dir Wind Speed Gust Speed Precip Events Conditions
12:00 AM 77.0 °F - 73.4 °F 89% 29.71 in 2.5 mi SSE 6.7 mph - N/A   Mist
12:30 AM 77.0 °F - 71.6 °F 83% 29.71 in 2.5 mi SSE 6.7 mph - N/A   Mist
1:00 AM 77.0 °F - 71.6 °F 83% 29.71 in 2.5 mi SSE 6.7 mph - N/A   Mist
1:30 AM 77.0 °F - 71.6 °F 83% 29.71 in 2.2 mi SSE 4.5 mph - N/A   Mist
2:00 AM 76 °F - 73 °F 88% 29.71 in 4 mi SW 2.2 mph - -   Mist
2:00 AM 77.0 °F - 71.6 °F 83% 29.71 in 2.2 mi SSE 2.2 mph - N/A   Mist
2:30 AM 75.2 °F - 71.6 °F 89% 29.71 in 2.2 mi Variable 2.2 mph - N/A   Mist
3:00 AM 75.2 °F - 71.6 °F 89% 29.71 in 2.2 mi Variable 2.2 mph - N/A   Mist
3:30 AM 75.2 °F - 71.6 °F 89% 29.71 in 2.2 mi East 2.2 mph - N/A   Mist
4:00 AM 75.2 °F - 71.6 °F 89% 29.71 in 2.2 mi ESE 2.2 mph - N/A   Mist
4:30 AM 75.2 °F - 71.6 °F 89% 29.71 in - Variable 2.2 mph - N/A   Mist
5:00 AM 75 °F - 73 °F 92% 29.71 in 2 mi South 2.2 mph - -   Mist
5:00 AM 75.2 °F - 71.6 °F 89% 29.71 in 1.7 mi Variable 2.2 mph - N/A   Mist
5:30 AM 73.4 °F - 71.6 °F 94% 29.71 in 1.1 mi Variable 2.2 mph - N/A   Mist
6:00 AM 75.2 °F - 73.4 °F 94% 29.74 in 1.1 mi ESE 2.2 mph - N/A   Mist
6:30 AM 75.2 °F - 73.4 °F 94% 29.74 in 1.0 mi Variable 2.2 mph - N/A   Mist
7:00 AM 77.0 °F - 73.4 °F 89% 29.74 in 1.1 mi SE 4.5 mph - N/A   Mist
7:30 AM 77.0 °F - 73.4 °F 89% 29.74 in 1.1 mi SSE 4.5 mph - N/A   Mist
8:00 AM 78 °F - 74 °F 84% 29.74 in 2 mi South 1.2 mph - -   Mist
8:00 AM 80.6 °F 85.4 °F 73.4 °F 79% 29.74 in 1.2 mi Variable 2.2 mph - N/A   Mist
8:30 AM 80.6 °F 85.4 °F 73.4 °F 79% 29.74 in 1.6 mi SE 4.5 mph - N/A   Mist
9:00 AM 80.6 °F 85.4 °F 73.4 °F 79% 29.74 in 1.6 mi ESE 4.5 mph - N/A   Mist
9:30 AM 82.4 °F 88.2 °F 73.4 °F 74% 29.74 in 1.7 mi Variable 2.2 mph - N/A   Mist
10:00 AM 84.2 °F 90.9 °F 73.4 °F 70% 29.74 in - Variable 2.2 mph - N/A   Partly Cloudy
10:30 AM 84.2 °F 90.9 °F 73.4 °F 70% 29.74 in 2.2 mi SSE 6.7 mph - N/A   Partly Cloudy
11:00 AM 84 °F - 73 °F 61% 29.75 in 4 mi SSE 2.3 mph - -   Haze
11:00 AM 84.2 °F 89.6 °F 71.6 °F 66% 29.74 in 2.2 mi SE 6.7 mph - N/A   Haze
11:30 AM 84.2 °F 89.6 °F 71.6 °F 66% 29.74 in 2.2 mi SSE 6.7 mph - N/A   Haze
12:00 PM 84.2 °F 89.6 °F 71.6 °F 66% 29.74 in 2.5 mi SE 4.5 mph - N/A   Haze
12:30 PM 86.0 °F 95.1 °F 75.2 °F 70% 29.74 in 2.8 mi SE 4.5 mph - N/A   Haze
1:00 PM 86.0 °F 91.8 °F 71.6 °F 62% 29.74 in 2.8 mi SSE 4.5 mph - N/A   Haze
1:30 PM 86.0 °F 91.8 °F 71.6 °F 62% 29.74 in 3.1 mi SSE 6.7 mph - N/A   Haze
2:00 PM 87 °F - 72 °F 52% 29.73 in 7 mi South 1.2 mph - -   Partly Cloudy
2:00 PM 86.0 °F 91.8 °F 71.6 °F 62% 29.71 in 3.1 mi SE 4.5 mph - N/A   Haze
2:30 PM 87.8 °F 95.6 °F 73.4 °F 62% 29.71 in 3.1 mi SSE 6.7 mph - N/A   Haze
3:00 PM 87.8 °F 93.8 °F 71.6 °F 58% 29.71 in 3.1 mi SSE 4.5 mph - N/A   Haze
3:30 PM 87.8 °F 93.8 °F 71.6 °F 58% 29.71 in 3.7 mi SSE 6.7 mph - N/A   Unknown
4:00 PM 87.8 °F 95.6 °F 73.4 °F 62% 29.71 in 3.7 mi SSE 6.7 mph - N/A   Unknown
4:30 PM 87.8 °F 93.8 °F 71.6 °F 58% 29.71 in 3.7 mi East 4.5 mph - N/A   Unknown
5:00 PM 88 °F - 73 °F 54% 29.71 in 7 mi SSW 6.7 mph - -   Partly Cloudy
5:00 PM 87.8 °F 93.8 °F 71.6 °F 58% 29.71 in 3.7 mi SSE 6.7 mph - N/A   Unknown
5:30 PM 86.0 °F 91.8 °F 71.6 °F 62% 29.71 in 3.7 mi SSE 8.9 mph - N/A   Unknown
6:00 PM 86.0 °F 91.8 °F 71.6 °F 62% 29.71 in 3.7 mi SSE 6.7 mph - N/A   Unknown
6:30 PM 86.0 °F 91.8 °F 71.6 °F 62% 29.71 in 3.7 mi SSE 6.7 mph - N/A   Unknown
7:00 PM 84.2 °F 89.6 °F 71.6 °F 66% 29.71 in 3.7 mi SSE 6.7 mph - N/A   Unknown
7:30 PM 82.4 °F 87.2 °F 71.6 °F 70% 29.71 in 2.8 mi SE 6.7 mph - N/A   Haze
8:00 PM 83 °F - 74 °F 66% 29.72 in 4 mi South 6.7 mph - -   Haze
8:00 PM 82.4 °F 88.2 °F 73.4 °F 74% 29.71 in 3.1 mi SSE 6.7 mph - N/A   Haze
8:30 PM 82.4 °F 88.2 °F 73.4 °F 74% 29.74 in 2.8 mi SSE 6.7 mph - N/A   Mist
9:00 PM 80.6 °F 84.6 °F 71.6 °F 74% 29.74 in 2.8 mi SE 8.9 mph - N/A   Mist
9:30 PM 80.6 °F 84.6 °F 71.6 °F 74% 29.74 in 3.1 mi SE 6.7 mph - N/A   Mist
10:00 PM 80.6 °F 84.6 °F 71.6 °F 74% 29.74 in 3.1 mi SSE 6.7 mph - N/A   Mist
10:30 PM 78.8 °F - 71.6 °F 78% 29.74 in 3.1 mi SE 6.7 mph - N/A   Mist
11:00 PM 80 °F - 72 °F 70% 29.75 in 4 mi South 2.3 mph - -   Haze
11:00 PM 78.8 °F - 69.8 °F 74% 29.74 in 3.7 mi SSE 6.7 mph - N/A   Unknown
11:30 PM 78.8 °F - 69.8 °F 74% 29.74 in 3.7 mi SSE 4.5 mph - N/A   Unknown